Location: Larkspur
(54.4391°N, 113.7691°W)
Time: 13:16:00
(UTC+00:00)

Oscar 19 - Pass Details

Date: 01 December 2023
Orbit: 771 x 789 km, 98.9° (Epoch: 01 March)

Event Time Altitude Azimuth Distance (km) Brightness Sun altitude
Rises 23:53:00 0° 187° (S) 3,236 14.4 -5.4°
Reaches altitude 10° 23:55:28 10° 195° (SSW) 2,313 13.8 -5.7°
Maximum altitude 00:00:11 37° 263° (W) 1,184 12.3 -6.3°
Drops below altitude 10° 00:04:56 10° 331° (NNW) 2,331 13.1 -6.9°
Sets 00:07:26 0° 340° (NNW) 3,265 13.8 -7.2°
